Weather History for LGKZ - November, 2012

Change the Weather History Date:

Saturday, November 24, 2012

  Actual Average Record
Temperature  
Mean Temperature 48 °F -  
Max Temperature 55 °F - - ()
Min Temperature 41 °F - - ()
Degree Days  
Heating Degree Days 17    
Moisture  
Dew Point 43 °F    
Average Humidity 92    
Maximum Humidity 100    
Minimum Humidity 77    
Precipitation  
Precipitation 0.00 in - - ()
Sea Level Pressure  
Sea Level Pressure 30.20 in    
Wind  
Wind Speed 1 mph ()    
Max Wind Speed 5 mph    
Max Gust Speed -    
Visibility 1.3 miles    
Events Fog    
T = Trace of Precipitation, MM = Missing Value Source: Averaged Metar Reports

Daily Weather History Graph

Daily Weather History Graph

Search for Another Location

Airport or City:

Trip Planner

Search our weather history database for the weather conditions in past years. The results will help you decide how hot, cold, wet, or windy it might be!

Date:

Astronomy

Nov. 24, 2012 Rise Set
Actual Time 7:28 AM EET 5:09 PM EET
Civil Twilight 6:59 AM EET 5:39 PM EET
Nautical Twilight 6:25 AM EET 6:12 PM EET
Astronomical Twilight 5:53 AM EET 6:45 PM EET
Moon 2:45 PM EET (11/24) 3:27 AM EET (11/24)
Length of Visible Light 10h 40m
Length of Day
9h 40m
Waxing Gibbous, 85% of the Moon is Illuminated
Nov 24
Waxing Gibbous
Nov 28
Full
Dec 6
Last Quarter
Dec 13
New
Dec 20
First Quarter

Hourly Weather History & Observations

Time (EET) Temp. Windchill Dew Point Humidity Pressure Visibility Wind Dir Wind Speed Gust Speed Precip Events Conditions
12:20 AM 44.6 °F - 42.8 °F 93% 30.21 in - Variable 1.2 mph - N/A   Unknown
12:50 AM 44.6 °F - 42.8 °F 93% 30.21 in - Calm Calm - N/A   Unknown
1:20 AM 44.6 °F - 42.8 °F 93% 30.18 in - Variable 1.2 mph - N/A   Unknown
1:50 AM 44.6 °F - 42.8 °F 93% 30.18 in - Calm Calm - N/A   Unknown
2:20 AM 44.6 °F - 42.8 °F 93% 30.21 in - Calm Calm - N/A   Unknown
2:50 AM 42.8 °F - 41.0 °F 93% 30.21 in - Variable 2.3 mph - N/A   Unknown
3:20 AM 42.8 °F - 41.0 °F 93% 30.18 in - Calm Calm - N/A   Unknown
3:50 AM 42.8 °F - 41.0 °F 93% 30.18 in - Variable 1.2 mph - N/A   Unknown
4:20 AM 42.8 °F - 41.0 °F 93% 30.18 in - Variable 1.2 mph - N/A   Unknown
4:50 AM 42.8 °F - 41.0 °F 93% 30.18 in - Calm Calm - N/A   Unknown
5:20 AM 42.8 °F - 41.0 °F 93% 30.18 in - Calm Calm - N/A   Unknown
5:50 AM 42.8 °F 41.1 °F 41.0 °F 93% 30.18 in - Variable 3.5 mph - N/A   Unknown
6:20 AM 42.8 °F 41.1 °F 41.0 °F 93% 30.18 in - Variable 3.5 mph - N/A   Unknown
6:50 AM 41.0 °F 39.0 °F 39.2 °F 93% 30.18 in - Variable 3.5 mph - N/A   Unknown
7:20 AM 42.8 °F - 41.0 °F 93% 30.18 in - Calm Calm - N/A   Unknown
7:50 AM 41.0 °F - 41.0 °F 100% 30.21 in 0.0 mi Calm Calm - N/A Fog Fog
8:50 AM 42.8 °F - 41.0 °F 93% 30.21 in 0.0 mi Calm Calm - N/A Fog Fog
9:50 AM 44.6 °F - 42.8 °F 93% 30.24 in 0.0 mi Calm Calm - N/A Fog Fog
10:50 AM 46.4 °F - 44.6 °F 93% 30.24 in 0.1 mi Calm Calm - N/A Fog Fog
11:50 AM 46.4 °F - 46.4 °F 100% 30.21 in 0.3 mi Calm Calm - N/A Fog Fog
12:50 PM 51.8 °F - 48.2 °F 88% 30.21 in 2.5 mi Calm Calm - N/A   Mostly Cloudy
1:50 PM 53.6 °F - 46.4 °F 77% 30.18 in 6.2 mi Calm Calm - N/A   Mostly Cloudy
2:20 PM 55.4 °F - 48.2 °F 77% 30.18 in - SE 4.6 mph - N/A   Unknown
2:50 PM 53.6 °F - 48.2 °F 82% 30.18 in - SE 4.6 mph - N/A   Unknown
3:20 PM 53.6 °F - 48.2 °F 82% 30.18 in - Variable 3.5 mph - N/A   Unknown
3:50 PM 53.6 °F - 48.2 °F 82% 30.18 in - Variable 2.3 mph - N/A   Unknown
4:50 PM 50.0 °F - 48.2 °F 94% 30.18 in - Variable 2.3 mph - N/A   Unknown
5:20 PM 48.2 °F - 46.4 °F 93% 30.18 in - Calm Calm - N/A   Unknown
5:50 PM 46.4 °F 45.2 °F 44.6 °F 93% 30.18 in - Variable 3.5 mph - N/A   Unknown
6:20 PM 46.4 °F 45.2 °F 44.6 °F 93% 30.21 in - Variable 3.5 mph - N/A   Unknown
6:50 PM 46.4 °F 44.3 °F 44.6 °F 93% 30.21 in - North 4.6 mph - N/A   Unknown
7:20 PM 44.6 °F 42.2 °F 42.8 °F 93% 30.21 in - North 4.6 mph - N/A   Unknown
7:50 PM 44.6 °F - 42.8 °F 93% 30.21 in - Calm Calm - N/A   Unknown
8:20 PM 44.6 °F - 42.8 °F 93% 30.21 in - Variable 2.3 mph - N/A   Unknown
8:50 PM 42.8 °F 40.1 °F 42.8 °F 100% 30.24 in - NNW 4.6 mph - N/A   Unknown
9:20 PM 42.8 °F 41.1 °F 42.8 °F 100% 30.24 in - Variable 3.5 mph - N/A   Unknown
9:50 PM 42.8 °F - 41.0 °F 93% 30.24 in - Variable 1.2 mph - N/A   Unknown
10:20 PM 42.8 °F - 41.0 °F 93% 30.24 in - Variable 2.3 mph - N/A   Unknown
10:50 PM 42.8 °F 41.1 °F 41.0 °F 93% 30.24 in - Variable 3.5 mph - N/A   Unknown
11:20 PM 44.6 °F 43.1 °F 42.8 °F 93% 30.24 in - Variable 3.5 mph - N/A   Unknown
11:50 PM 44.6 °F - 42.8 °F 93% 30.24 in - Calm Calm - N/A   Unknown